Weather History for Bryce Canyon, UT

Change the Weather History Date:

Tuesday, August 6, 2013

  Actual Average Record
Temperature  
Mean Temperature 62 °F -  
Max Temperature 75 °F 79 °F 90 °F (1981)
Min Temperature 51 °F 46 °F 34 °F (1978)
Degree Days  
Heating Degree Days 3    
Growing Degree Days 12 (Base 50)    
Moisture  
Dew Point 35 °F    
Average Humidity 36    
Maximum Humidity 57    
Minimum Humidity 20    
Precipitation  
Precipitation 0.00 in - - ()
Sea Level Pressure  
Sea Level Pressure 29.94 in    
Wind  
Wind Speed 6 mph (SW)    
Max Wind Speed 13 mph    
Max Gust Speed -    
Visibility 10 miles    
Events      
Averages and records for this station are not official NWS values.
T = Trace of Precipitation, MM = Missing Value Source: NWS Daily Summary

Daily Weather History Graph

Daily Weather History Graph

Search for Another Location

Airport:

Trip Planner

Search our weather history database for the weather conditions in past years. The results will help you decide how hot, cold, wet, or windy it might be!

Date:

Astronomy

Aug. 06, 2013 Rise Set
Actual Time 6:36 AM MDT 8:31 PM MDT
Civil Twilight 6:08 AM MDT 9:00 PM MDT
Nautical Twilight 5:33 AM MDT 9:34 PM MDT
Astronomical Twilight 4:55 AM MDT 10:11 PM MDT
Moon 6:30 AM MDT (8/6) 8:10 PM MDT (8/6)
Length of Visible Light 14h 51m
Length of Day
13h 54m
Waning Crescent, 0% of the Moon is Illuminated
Aug 6
Waning Crescent
Aug 6
New
Aug 14
First Quarter
Aug 20
Full
Aug 28
Last Quarter

Hourly Weather History & Observations

Time (MDT) Temp. Dew Point Humidity Pressure Visibility Wind Dir Wind Speed Gust Speed Precip Events Conditions
12:53 AM 55.9 °F 36.0 °F 47% 29.92 in 10.0 mi West 5.8 mph - N/A   Clear
1:53 AM 55.9 °F 36.0 °F 47% 29.91 in 10.0 mi West 4.6 mph - N/A   Clear
2:53 AM 52.0 °F 37.0 °F 57% 29.90 in 10.0 mi West 5.8 mph - N/A   Clear
3:53 AM 54.0 °F 36.0 °F 51% 29.89 in 10.0 mi West 8.1 mph - N/A   Clear
4:53 AM 53.1 °F 36.0 °F 52% 29.89 in 10.0 mi WSW 5.8 mph - N/A   Clear
5:53 AM 51.1 °F 36.0 °F 56% 29.91 in 10.0 mi Calm Calm - N/A   Clear
6:53 AM 54.0 °F 35.1 °F 49% 29.93 in 10.0 mi Calm Calm - N/A   Overcast
7:53 AM 60.1 °F 33.1 °F 36% 29.94 in 10.0 mi NNW 8.1 mph - N/A   Overcast
8:53 AM 61.0 °F 37.0 °F 41% 29.98 in 10.0 mi West 6.9 mph - N/A   Mostly Cloudy
9:53 AM 64.0 °F 39.9 °F 41% 30.00 in 10.0 mi West 5.8 mph - N/A   Overcast
10:53 AM 70.0 °F 30.0 °F 23% 29.97 in 10.0 mi WNW 6.9 mph - N/A   Overcast
11:53 AM 72.0 °F 28.9 °F 20% 29.98 in 10.0 mi WSW 4.6 mph - N/A   Mostly Cloudy
12:53 PM 72.0 °F 32.0 °F 23% 29.97 in 10.0 mi SE 9.2 mph - N/A   Partly Cloudy
1:53 PM 73.9 °F 33.1 °F 22% 29.96 in 10.0 mi SSE 11.5 mph - N/A   Partly Cloudy
2:53 PM 73.0 °F 34.0 °F 24% 29.96 in 10.0 mi SSE 11.5 mph - N/A   Scattered Clouds
3:53 PM 73.0 °F 37.9 °F 28% 29.95 in 10.0 mi SE 12.7 mph - N/A   Scattered Clouds
4:53 PM 73.0 °F 36.0 °F 26% 29.95 in 10.0 mi SSE 10.4 mph - N/A   Clear
5:53 PM 72.0 °F 35.1 °F 26% 29.94 in 10.0 mi SSE 8.1 mph - N/A   Partly Cloudy
6:53 PM 70.0 °F 35.1 °F 28% 29.94 in 10.0 mi SSE 8.1 mph - N/A   Overcast
7:53 PM 68.0 °F 35.1 °F 30% 29.94 in 10.0 mi Calm Calm - N/A   Overcast
8:53 PM 64.9 °F 35.1 °F 33% 29.95 in 10.0 mi SE 4.6 mph - N/A   Overcast
9:53 PM 64.0 °F 37.9 °F 38% 29.96 in 10.0 mi Calm Calm - N/A   Overcast
10:53 PM 64.0 °F 37.9 °F 38% 29.93 in 10.0 mi WSW 5.8 mph - N/A   Overcast
11:53 PM 64.0 °F 39.0 °F 40% 29.92 in 10.0 mi Calm Calm - N/A   Overcast